Location: Arthez
(43.0833°N, 0.2500°W)
Time: 22:03:30
(UTC+00:00)

Cosmos 1932 - Pass Details

Date: 23 October 2021
Orbit: 942 x 987 km, 65.0° (Epoch: 06 December)

Event Time Altitude Azimuth Distance (km) Brightness Sun altitude
Rises 19:02:59 0° 327° (NNW) 3,618 8.0 -22.1°
Reaches altitude 10° 19:05:33 10° 330° (NNW) 2,673 7.2 -22.6°
Maximum altitude 19:11:46 69° 54° (NE) 1,013 4.3 -23.7°
Enters shadow 19:13:18 51° 116° (ESE) 1,184 4.5 -24.0°
